Dewpoint
62 62 62 61 61 62 62 62 62 62 62 62 62 63 63 63 64 64 64 64 64 65 65 65 65 65 65 67 66 66 65 65 65 65 65 64 64 64 63 63 63 63
61 61 62 61 61 61 61 61 61 61 61 61 62 62 62 63 63 64 64 64 65 65 64 64 64 64 64 65 65 64 64 64 64 64 64 64 64 64 64 64 63 64
59 60 61 60 60 60 60 60 60 60 60 60 61 61 62 63 63 63 63 63 63 64 64 64 64 64 64 64 64 64 64 64 63 64 64 65 65 64 64 64 64 64
58 59 60 60 60 60 60 60 59 60 60 61 60 61 62 62 63 62 62 64 63 63 63 63 63 63 64 64 64 64 64 64 64 64 65 65 65 64 64 65 65 64
58 58 59 59 59 59 60 60 59 59 60 60 58 59 62 61 61 61 61 61 62 62 62 63 63 63 64 64 64 64 64 64 64 64 64 64 64 64 64 64 64 64
58 59 60 60 60 59 59 59 59 59 59 59 59 61 60 60 60 61 61 61 61 62 62 62 62 62 63 64 64 64 64 64 64 64 64 63 64 64 64 64 64 64
58 58 59 59 59 59 59 58 58 60 59 59 60 59 59 59 59 58 59 60 61 63 63 63 63 63 63 63 63 63 64 64 64 64 64 64 64 64 64 64 65 64
57 58 58 59 59 59 59 58 59 59 59 58 59 59 58 59 58 58 59 59 60 60 62 62 62 62 62 63 62 62 62 63 63 63 63 62 63 63 63 63 63 64
57 57 58 58 58 58 59 58 58 58 60 58 58 58 58 57 57 57 58 57 56 57 57 57 58 59 59 60 61 61 61 61 61 62 62 62 62 62 63 63 62 62
56 57 56 57 57 57 58 57 58 58 60 58 57 57 57 57 56 56 56 55 55 55 55 55 56 57 57 56 56 56 55 56 58 59 60 61 62 61 61 62 62 61
56 57 56 55 56 56 56 56 57 57 59 57 56 56 56 56 57 55 54 54 54 54 54 55 55 55 54 54 54 53 53 53 53 53 55 57 59 61 62 62 61 61
56 57 57 56 56 55 55 56 57 57 58 57 56 55 55 55 55 55 55 54 53 53 53 54 54 54 53 52 51 51 51 51 52 52 53 53 54 56 58 59 61 62
56 57 57 57 57 56 56 56 56 57 57 56 56 55 55 54 54 55 56 54 53 53 53 53 53 52 51 51 50 49 50 50 51 51 52 52 53 53 54 56 57 59
57 56 56 57 57 56 56 56 56 56 56 56 56 54 54 54 54 54 54 53 53 53 53 53 52 51 49 49 49 49 50 50 50 51 51 52 52 52 53 53 54 55
56 56 56 57 56 55 55 55 55 56 55 55 55 55 55 54 54 53 54 53 53 52 52 54 51 51 51 50 48 48 49 49 50 50 51 51 51 52 52 53 53 54
56 56 56 55 55 55 54 54 55 55 55 54 54 54 54 54 54 53 53 53 52 52 51 51 52 51 54 52 51 49 48 48 49 49 50 51 52 52 52 52 53 53
55 55 55 54 54 54 54 54 54 54 54 54 54 53 53 54 53 53 53 52 52 51 51 51 50 50 50 42 41 46 49 48 47 48 49 49 51 52 52 53 53 53
54 54 54 53 54 54 53 54 54 54 54 54 54 53 53 53 53 53 53 52 51 50 50 50 50 51 46 41 41 41 46 49 48 47 48 49 50 51 52 53 54 54
53 53 53 53 53 53 53 53 53 53 53 53 53 54 53 52 53 52 52 51 51 50 50 50 50 47 43 42 42 41 41 46 46 46 47 49 50 52 53 54 54 54
52 52 52 52 53 53 53 53 53 53 53 53 53 53 53 53 52 52 51 51 51 50 50 50 49 48 44 43 42 41 40 41 45 45 47 48 50 52 53 53 54 54
51 51 52 52 52 52 52 52 52 52 52 52 52 52 52 52 52 51 51 51 51 50 50 49 49 47 43 41 41 41 40 41 44 45 47 49 50 51 52 53 53 53
51 51 51 51 51 52 52 52 52 52 51 51 52 51 52 51 51 51 51 51 51 49 49 50 50 44 41 40 40 40 40 45 46 46 47 47 49 50 51 52 52 53
50 50 51 51 51 51 51 51 51 50 51 51 51 51 51 50 51 51 51 51 50 49 49 49 49 45 40 39 39 39 41 45 45 46 47 47 48 49 51 51 51 51
50 50 50 51 50 50 50 51 51 51 50 50 50 50 50 50 50 50 50 50 49 49 48 48 48 47 41 38 38 38 45 46 46 46 45 46 47 49 49 50 50 53
50 50 50 50 49 49 50 49 49 49 49 49 49 49 49 49 50 49 48 48 48 48 51 50 48 47 42 40 40 40 44 45 45 45 44 45 47 48 49 50 50 51
51 51 51 50 49 49 49 50 49 48 47 47 47 47 47 47 47 48 47 47 47 48 48 50 49 48 46 41 41 41 42 47 45 45 45 45 46 47 48 49 49 50